period_start,C,m1,H,J0,J1,J2,J3,J4,J5,JA,JB,JC,JD,JJ,JK,JN,#
2014-05-08 00:00:01,0.00,2.02,0.00,17.92,24.70,26.01,6.14,31.29,1002.57,2047.96,2710.83,2799.95,2983.02,350.41,325.45,23.77,0000 0000 0000 0000 000000
2014-05-08 00:01:01,0.02,2.03,0.00,17.90,24.70,26.06,6.04,31.42,1002.54,2047.97,2710.78,2799.90,2983.01,350.60,325.42,23.77,0000 0000 0000 0000 000000
2014-05-08 00:02:02,0.02,2.03,0.00,17.93,24.70,26.12,6.06,31.50,1002.56,2047.97,2710.62,2799.75,2983.01,348.27,323.59,23.78,0000 0000 0000 0000 000000
2014-05-08 00:03:02,0.07,2.03,0.00,17.91,24.70,26.07,6.07,31.63,1002.54,2047.98,2710.44,2799.51,2983.00,348.90,324.04,23.78,0000 0000 0000 0000 000000
2014-05-08 00:04:02,0.12,2.03,0.00,17.85,24.70,26.02,6.21,31.42,1002.55,2047.98,2710.35,2799.32,2983.00,351.81,326.36,23.79,0000 0000 0000 0000 000000
2014-05-08 00:05:02,0.06,2.03,0.00,17.75,24.70,26.05,6.05,31.29,1002.57,2047.97,2710.19,2799.15,2982.99,349.64,324.92,23.80,0000 0000 0000 0000 000000
2014-05-08 00:06:02,0.07,2.03,0.00,17.65,24.70,26.08,5.99,31.33,1002.58,2047.98,2710.13,2799.07,2982.96,349.06,324.94,23.80,0000 0000 0000 0000 000000
2014-05-08 00:07:03,0.04,2.03,0.00,17.60,24.70,26.07,6.11,31.50,1002.70,2047.98,2710.09,2799.02,2982.95,350.33,325.61,23.81,0000 0000 0000 0000 000000
2014-05-08 00:08:03,0.01,2.03,0.00,17.58,24.70,26.06,6.01,31.54,1002.89,2047.98,2710.02,2799.00,2982.88,349.81,325.18,23.81,0000 0000 0000 0000 000000
2014-05-08 00:09:03,0.01,2.03,0.00,17.63,24.70,26.12,5.93,31.42,1002.91,2047.98,2710.00,2799.00,2982.80,350.31,325.74,23.82,0000 0000 0000 0000 000000
2014-05-08 00:10:03,0.01,2.03,0.00,17.68,24.69,26.12,6.10,31.50,1002.94,2047.99,2710.00,2799.00,2982.62,349.34,324.84,23.83,0000 0000 0000 0000 000000
2014-05-08 00:11:04,0.05,2.03,0.00,17.75,24.70,26.11,6.02,31.33,1002.94,2047.99,2709.98,2799.00,2982.37,350.00,325.37,23.83,0000 0000 0000 0000 000000
2014-05-08 00:12:04,0.03,2.03,0.00,17.81,24.69,26.14,5.97,31.46,1002.94,2047.98,2709.89,2799.00,2982.20,350.11,325.41,23.84,0000 0000 0000 0000 000000
2014-05-08 00:13:04,0.03,2.03,0.00,17.85,24.69,26.15,6.10,31.42,1002.94,2047.98,2709.95,2798.97,2982.11,350.68,325.85,23.84,0000 0000 0000 0000 000000
2014-05-08 00:14:04,0.00,2.03,0.00,17.90,24.69,26.11,6.10,31.42,1002.94,2047.99,2709.92,2798.93,2982.04,349.93,324.60,23.85,0000 0000 0000 0000 000000
2014-05-08 00:15:04,0.03,2.03,0.00,17.91,24.69,26.08,6.09,31.50,1002.94,2047.99,2709.71,2798.87,2982.02,349.74,325.29,23.85,0000 0000 0000 0000 000000
2014-05-08 00:16:05,0.05,2.03,0.00,17.92,24.69,26.02,6.14,31.63,1002.94,2047.99,2709.56,2798.68,2982.00,350.44,325.27,23.86,0000 0000 0000 0000 000000
2014-05-08 00:17:05,0.13,2.03,0.00,17.92,24.69,26.04,6.03,31.58,1002.94,2047.98,2709.29,2798.37,2981.99,350.29,325.46,23.87,0000 0000 0000 0000 000000
2014-05-08 00:18:05,0.08,2.03,0.00,17.90,24.69,26.08,6.06,31.79,1002.96,2047.96,2709.30,2798.21,2981.99,350.13,325.33,23.87,0000 0000 0000 0000 000000
2014-05-08 00:19:05,0.03,2.03,0.00,17.83,24.68,26.06,6.10,31.67,1002.95,2047.98,2709.18,2798.10,2981.97,349.89,325.19,23.88,0000 0000 0000 0000 000000
2014-05-08 00:20:06,0.08,2.03,0.00,17.78,24.68,26.03,6.04,31.67,1002.96,2047.99,2709.06,2798.04,2981.94,349.84,325.20,23.88,0000 0000 0000 0000 000000
2014-05-08 00:21:06,0.03,2.03,0.00,17.79,24.68,26.01,6.07,31.63,1002.99,2047.99,2709.02,2798.01,2981.88,350.21,325.55,23.89,0000 0000 0000 0000 000000
2014-05-08 00:22:06,0.02,2.03,0.00,17.79,24.68,26.02,5.92,31.58,1003.01,2047.98,2708.99,2798.01,2981.63,348.75,324.20,23.90,0000 0000 0000 0000 000000
2014-05-08 00:23:06,0.04,2.03,0.00,17.81,24.67,26.02,6.16,31.63,1003.01,2047.97,2708.99,2798.00,2981.41,350.54,325.83,23.90,0000 0000 0000 0000 000000
2014-05-08 00:24:07,0.03,2.03,0.00,17.89,24.67,25.98,6.08,31.79,1003.00,2047.97,2708.96,2798.00,2981.22,350.12,324.87,23.91,0000 0000 0000 0000 000000
2014-05-08 00:25:07,0.03,2.03,0.00,17.95,24.67,26.06,5.98,31.58,1003.12,2047.97,2708.62,2798.00,2981.11,349.07,324.69,23.91,0000 0000 0000 0000 000000
2014-05-08 00:26:07,0.08,2.03,0.00,18.00,24.67,26.14,6.15,31.79,1003.03,2047.98,2708.43,2797.99,2981.05,350.98,326.05,23.92,0000 0000 0000 0000 000000
2014-05-08 00:27:07,0.06,2.03,0.00,18.03,24.67,26.11,6.04,31.79,1003.03,2047.99,2708.37,2797.97,2981.01,349.29,323.93,23.93,0000 0000 0000 0000 000000
2014-05-08 00:28:08,0.03,2.03,0.00,18.02,24.67,26.08,6.00,31.54,1003.01,2047.99,2708.22,2797.92,2981.00,349.30,324.65,23.93,0000 0000 0000 0000 000000
2014-05-08 00:29:08,0.03,2.03,0.00,18.01,24.67,26.08,6.08,31.33,1003.05,2047.99,2708.16,2797.77,2981.00,350.63,325.70,23.94,0000 0000 0000 0000 000000
2014-05-08 00:30:08,0.04,2.03,0.00,18.00,24.67,26.06,5.97,31.58,1003.09,2047.98,2708.13,2797.61,2981.00,349.42,324.60,23.94,0000 0000 0000 0000 000000
2014-05-08 00:31:08,0.05,2.03,0.00,18.01,24.67,26.08,6.07,31.54,1003.10,2047.97,2708.05,2797.41,2980.98,350.40,325.51,23.95,0000 0000 0000 0000 000000
2014-05-08 00:32:09,0.07,2.03,0.00,18.01,24.67,26.07,6.18,31.50,1003.16,2047.98,2708.02,2797.24,2980.98,350.48,325.61,23.95,0000 0000 0000 0000 000000
2014-05-08 00:33:09,0.05,2.03,0.00,18.00,24.67,26.10,5.94,31.42,1003.15,2047.97,2708.00,2797.15,2980.97,350.52,325.51,23.96,0000 0000 0000 0000 000000
2014-05-08 00:34:09,0.01,2.03,0.00,18.01,24.67,26.10,6.11,31.50,1003.17,2047.98,2708.00,2797.09,2980.93,350.16,325.37,23.97,0000 0000 0000 0000 000000
2014-05-08 00:35:09,0.04,2.03,0.00,18.03,24.67,26.06,6.09,31.54,1003.18,2047.99,2707.98,2797.05,2980.84,350.01,324.28,23.97,0000 0000 0000 0000 000000
2014-05-08 00:36:10,0.04,2.04,0.00,18.03,24.67,26.09,6.17,31.46,1003.19,2047.99,2707.86,2797.02,2980.52,350.05,325.24,23.98,0000 0000 0000 0000 000000
2014-05-08 00:37:10,0.06,2.04,0.00,18.03,24.67,26.09,6.20,31.38,1003.15,2047.98,2707.66,2797.00,2980.23,350.40,325.51,23.98,0000 0000 0000 0000 000000
2014-05-08 00:38:10,0.09,2.04,0.00,17.97,24.67,26.07,6.17,31.42,1003.23,2047.98,2707.39,2797.00,2980.11,351.06,326.20,23.99,0000 0000 0000 0000 000000
2014-05-08 00:39:11,0.05,2.04,0.00,17.93,24.67,26.11,6.00,31.54,1003.16,2047.99,2707.26,2797.00,2980.06,349.76,324.85,24.00,0000 0000 0000 0000 000000
2014-05-08 00:40:11,0.03,2.04,0.00,17.89,24.67,26.16,6.20,31.50,1003.12,2047.99,2707.13,2796.99,2980.02,350.80,326.01,24.00,0000 0000 0000 0000 000000
2014-05-08 00:41:11,0.04,2.04,0.00,17.88,24.67,26.16,6.10,31.79,1003.04,2047.99,2707.05,2796.98,2980.00,350.12,325.37,24.01,0000 0000 0000 0000 000000
2014-05-08 00:42:11,0.01,2.04,0.00,17.88,24.67,26.13,5.95,31.38,1003.04,2047.99,2707.01,2796.98,2980.00,349.43,324.72,24.01,0000 0000 0000 0000 000000
2014-05-08 00:43:12,0.00,2.04,0.00,17.91,24.67,26.09,6.05,31.25,1002.99,2047.99,2706.99,2796.97,2980.00,349.89,325.13,24.02,0000 0000 0000 0000 000000
2014-05-08 00:44:12,0.00,2.04,0.00,17.96,24.67,26.11,6.08,31.50,1002.99,2047.99,2706.99,2796.89,2980.00,350.61,325.73,24.02,0000 0000 0000 0000 000000
2014-05-08 00:45:12,0.03,2.04,0.00,18.00,24.67,26.09,6.20,31.50,1002.96,2047.98,2706.98,2796.61,2979.99,351.04,326.10,24.03,0000 0000 0000 0000 000000
2014-05-08 00:46:12,0.07,2.04,0.00,18.03,24.67,26.08,6.24,31.50,1002.97,2047.99,2706.99,2796.35,2979.96,350.70,325.35,24.04,0000 0000 0000 0000 000000
2014-05-08 00:47:12,0.08,2.04,0.00,18.04,24.67,26.10,6.13,31.38,1002.95,2047.99,2706.86,2796.21,2979.89,350.39,325.42,24.04,0000 0000 0000 0000 000000
2014-05-08 00:48:13,0.07,2.04,0.00,18.03,24.67,26.09,6.09,31.21,1002.98,2047.99,2706.50,2796.14,2979.65,349.79,324.98,24.05,0000 0000 0000 0000 000000
2014-05-08 00:49:13,0.13,2.04,0.00,18.06,24.67,26.11,6.13,31.33,1002.96,2047.99,2706.26,2796.07,2979.38,350.17,324.99,24.05,0000 0000 0000 0000 000000
2014-05-08 00:50:13,0.10,2.04,0.00,18.06,24.67,26.13,6.07,31.42,1002.98,2047.99,2706.14,2796.02,2979.18,349.13,324.24,24.06,0000 0000 0000 0000 000000
2014-05-08 00:51:14,0.05,2.04,0.00,18.06,24.67,26.14,5.85,31.42,1002.96,2047.99,2706.07,2796.00,2979.09,349.59,324.66,24.07,0000 0000 0000 0000 000000
2014-05-08 00:52:14,0.02,2.04,0.00,18.05,24.67,26.14,6.00,31.42,1002.97,2047.99,2706.05,2796.00,2979.03,350.29,324.96,24.07,0000 0000 0000 0000 000000
2014-05-08 00:53:14,0.01,2.04,0.00,18.06,24.67,26.16,6.01,31.38,1002.95,2047.99,2706.02,2796.00,2979.01,349.98,325.31,24.08,0000 0000 0000 0000 000000
2014-05-08 00:54:14,0.00,2.04,0.00,18.06,24.67,26.15,6.13,31.54,1002.94,2047.99,2706.01,2796.00,2979.00,350.10,324.75,24.08,0000 0000 0000 0000 000000
2014-05-08 00:55:15,0.00,2.04,0.00,18.06,24.67,26.18,5.95,31.58,1002.96,2047.99,2706.00,2796.00,2979.00,350.66,325.65,24.09,0000 0000 0000 0000 000000
2014-05-08 00:56:15,0.00,2.04,0.00,18.02,24.67,26.18,5.99,31.46,1002.94,2047.99,2706.00,2796.00,2979.00,350.27,325.33,24.09,0000 0000 0000 0000 000000
2014-05-08 00:57:15,0.00,2.04,0.00,17.98,24.67,26.14,6.08,31.46,1002.94,2047.99,2705.99,2795.97,2979.00,350.69,325.76,24.10,0000 0000 0000 0000 000000
2014-05-08 00:58:15,0.01,2.04,0.00,17.94,24.67,26.14,6.07,31.42,1002.95,2047.99,2705.95,2795.95,2978.99,350.15,325.30,24.11,0000 0000 0000 0000 000000
2014-05-08 00:59:16,0.03,2.04,0.00,17.90,24.67,26.10,6.11,31.38,1002.94,2047.99,2705.63,2795.73,2978.90,349.55,324.84,24.11,0000 0000 0000 0000 000000
2014-05-08 01:00:16,0.13,2.04,0.00,17.86,24.67,26.07,6.09,31.46,1002.94,2047.99,2705.33,2795.39,2978.58,350.10,325.34,24.12,0000 0000 0000 0000 000000
2014-05-08 01:01:16,0.18,2.04,0.00,17.84,24.67,26.07,5.97,31.46,1002.94,2047.99,2705.19,2795.29,2978.41,348.96,324.80,24.12,0000 0000 0000 0000 000000
2014-05-08 01:02:17,0.08,2.04,0.00,17.88,24.67,26.11,6.07,31.42,1002.94,2047.99,2705.13,2795.16,2978.25,349.95,325.36,24.13,0000 0000 0000 0000 000000
2014-05-08 01:03:17,0.07,2.04,0.00,17.95,24.67,26.16,6.15,31.42,1002.90,2047.99,2705.05,2795.09,2978.11,351.05,326.02,24.14,0000 0000 0000 0000 000000
2014-05-08 01:04:17,0.05,2.04,0.00,18.00,24.67,26.08,5.98,31.21,1002.91,2047.99,2705.02,2795.04,2978.05,350.15,325.22,24.14,0000 0000 0000 0000 000000
2014-05-08 01:05:17,0.02,2.04,0.00,18.06,24.67,26.11,6.02,31.42,1002.81,2047.99,2705.00,2795.01,2978.01,349.71,324.69,24.15,0000 0000 0000 0000 000000
2014-05-08 01:06:18,0.01,2.04,0.00,18.07,24.67,26.14,6.05,31.29,1002.75,2047.99,2704.99,2795.00,2978.01,349.34,323.70,24.15,0000 0000 0000 0000 000000
2014-05-08 01:07:18,0.00,2.04,0.00,18.06,24.67,26.13,6.08,31.46,1002.63,2047.99,2704.99,2795.00,2978.00,350.17,325.09,24.16,0000 0000 0000 0000 000000
2014-05-08 01:08:18,0.00,2.04,0.00,18.07,24.67,26.16,6.07,31.38,1002.60,2047.99,2704.98,2795.00,2978.00,349.47,324.42,24.17,0000 0000 0000 0000 000000
2014-05-08 01:09:18,0.00,2.04,0.00,18.07,24.67,26.14,6.07,31.33,1002.58,2047.99,2704.83,2795.00,2977.99,350.15,325.04,24.17,0000 0000 0000 0000 000000
2014-05-08 01:10:18,0.02,2.04,0.00,18.09,24.67,26.13,5.98,31.29,1002.55,2047.99,2704.45,2794.99,2977.96,349.90,324.69,24.18,0000 0000 0000 0000 000000
2014-05-08 01:11:19,0.09,2.04,0.00,18.10,24.67,26.11,6.23,31.38,1002.51,2047.99,2704.39,2794.98,2977.95,350.89,325.67,24.18,0000 0000 0000 0000 000000
2014-05-08 01:12:19,0.01,2.05,0.00,18.11,24.67,26.12,5.89,31.42,1002.52,2047.98,2704.38,2794.89,2977.86,349.47,324.88,24.19,0000 0000 0000 0000 000000
2014-05-08 01:13:19,0.04,2.05,0.00,18.10,24.67,26.13,6.02,31.38,1002.50,2047.99,2704.18,2794.74,2977.60,349.61,324.25,24.19,0000 0000 0000 0000 000000
2014-05-08 01:14:20,0.12,2.05,0.00,18.07,24.67,26.14,6.01,31.29,1002.48,2047.99,2704.08,2794.48,2977.30,348.89,323.73,24.20,0000 0000 0000 0000 000000
2014-05-08 01:15:20,0.14,2.05,0.00,18.02,24.67,26.15,5.91,31.50,1002.48,2047.99,2704.03,2794.21,2977.13,349.56,324.52,24.21,0000 0000 0000 0000 000000
2014-05-08 01:16:20,0.09,2.05,0.00,17.96,24.67,26.13,5.93,31.38,1002.50,2047.99,2704.00,2794.07,2977.05,349.68,324.70,24.21,0000 0000 0000 0000 000000
2014-05-08 01:17:21,0.05,2.05,0.00,17.92,24.67,26.11,6.13,31.29,1002.51,2047.98,2703.99,2794.02,2977.02,350.11,325.14,24.22,0000 0000 0000 0000 000000
2014-05-08 01:18:21,0.01,2.05,0.00,17.91,24.67,26.12,5.96,31.42,1002.52,2047.97,2703.95,2794.00,2977.00,350.01,325.08,24.22,0000 0000 0000 0000 000000
2014-05-08 01:19:21,0.01,2.05,0.00,17.90,24.67,26.14,6.21,31.46,1002.56,2047.98,2703.80,2794.00,2977.00,350.02,325.11,24.23,0000 0000 0000 0000 000000
2014-05-08 01:20:21,0.02,2.05,0.00,17.96,24.68,26.15,6.02,31.50,1002.68,2047.99,2703.65,2794.00,2976.99,348.93,324.07,24.24,0000 0000 0000 0000 000000
2014-05-08 01:21:22,0.03,2.05,0.00,18.01,24.68,26.16,5.98,31.29,1002.75,2047.99,2703.45,2794.00,2976.99,350.24,325.11,24.24,0000 0000 0000 0000 000000
2014-05-08 01:22:22,0.04,2.05,0.00,18.07,24.68,26.17,5.97,31.25,1002.82,2047.99,2703.26,2793.99,2976.95,348.97,324.38,24.25,0000 0000 0000 0000 000000
2014-05-08 01:23:22,0.05,2.05,0.00,18.11,24.68,26.15,6.05,31.38,1002.92,2047.99,2703.13,2793.98,2976.82,350.28,325.23,24.25,0000 0000 0000 0000 000000
2014-05-08 01:24:22,0.02,2.05,0.00,18.16,24.69,26.17,6.15,31.42,1002.92,2047.99,2703.11,2793.98,2976.84,350.16,325.07,24.26,0000 0000 0000 0000 000000
2014-05-08 01:25:23,0.02,2.05,0.00,18.18,24.69,26.17,6.07,31.67,1002.94,2047.99,2703.06,2793.89,2976.59,349.67,324.51,24.26,0000 0000 0000 0000 000000
2014-05-08 01:26:23,0.05,2.05,0.00,18.17,24.69,26.17,6.03,31.46,1002.93,2047.99,2703.02,2793.77,2976.38,350.02,325.16,24.27,0000 0000 0000 0000 000000
2014-05-08 01:27:23,0.08,2.05,0.00,18.13,24.69,26.20,6.09,31.38,1002.91,2047.98,2703.00,2793.49,2976.15,350.27,325.19,24.28,0000 0000 0000 0000 000000
2014-05-08 01:28:24,0.10,2.05,0.00,18.14,24.69,26.18,6.07,31.42,1002.94,2047.98,2702.99,2793.28,2976.05,350.39,325.31,24.28,0000 0000 0000 0000 000000
2014-05-08 01:29:24,0.07,2.05,0.00,18.14,24.70,26.17,6.27,31.38,1002.91,2047.99,2702.92,2793.13,2976.02,350.44,325.18,24.29,0000 0000 0000 0000 000000
2014-05-08 01:30:24,0.07,2.05,0.00,18.15,24.70,26.17,6.00,31.38,1002.92,2047.99,2702.80,2793.05,2976.00,349.79,324.68,24.29,0000 0000 0000 0000 000000
2014-05-08 01:31:25,0.04,2.05,0.00,18.18,24.70,26.17,6.03,31.25,1002.92,2047.97,2702.53,2793.02,2976.00,349.65,324.36,24.30,0000 0000 0000 0000 000000
2014-05-08 01:32:25,0.03,2.05,0.00,18.19,24.70,26.23,5.99,31.50,1002.88,2047.98,2702.25,2793.00,2976.00,348.49,323.47,24.31,0000 0000 0000 0000 000000
2014-05-08 01:33:25,0.05,2.05,0.00,18.19,24.70,26.26,6.07,31.38,1002.90,2047.98,2702.13,2793.00,2975.98,350.38,325.22,24.31,0000 0000 0000 0000 000000
2014-05-08 01:34:25,0.02,2.05,0.00,18.18,24.70,26.25,6.12,31.21,1002.93,2047.99,2702.06,2793.00,2975.91,349.61,324.52,24.32,0000 0000 0000 0000 000000
2014-05-08 01:35:26,0.04,2.05,0.00,18.12,24.70,26.26,6.12,31.38,1002.88,2047.99,2702.03,2792.98,2975.69,350.16,325.09,24.32,0000 0000 0000 0000 000000
2014-05-08 01:36:26,0.04,2.05,0.00,18.11,24.70,26.28,5.93,31.13,1002.91,2047.97,2702.01,2792.98,2975.54,349.76,324.74,24.33,0000 0000 0000 0000 000000
2014-05-08 01:37:26,0.01,2.05,0.00,18.11,24.70,26.29,6.14,31.29,1002.93,2047.98,2701.99,2792.96,2975.31,350.53,325.46,24.34,0000 0000 0000 0000 000000
2014-05-08 01:38:26,0.04,2.05,0.00,18.13,24.70,26.26,6.13,31.33,1002.91,2047.97,2701.98,2792.78,2975.15,349.54,324.57,24.34,0000 0000 0000 0000 000000
2014-05-08 01:39:27,0.07,2.05,0.00,18.15,24.70,26.27,6.03,31.17,1002.90,2047.97,2701.96,2792.49,2975.07,349.91,324.94,24.35,0000 0000 0000 0000 000000
2014-05-08 01:40:27,0.10,2.05,0.00,18.17,24.70,26.28,6.10,31.25,1002.88,2047.98,2701.88,2792.27,2975.04,349.95,324.84,24.35,0000 0000 0000 0000 000000
2014-05-08 01:41:27,0.07,2.05,0.00,18.16,24.70,26.28,6.08,31.17,1002.87,2047.98,2701.54,2792.11,2975.01,350.18,324.73,24.36,0000 0000 0000 0000 000000
2014-05-08 01:42:28,0.10,2.06,0.00,18.18,24.70,26.27,5.99,31.25,1002.79,2047.98,2701.27,2792.04,2974.99,350.03,324.97,24.36,0000 0000 0000 0000 000000
2014-05-08 01:43:28,0.07,2.06,0.00,18.19,24.70,26.25,6.22,31.29,1002.70,2047.94,2701.15,2792.01,2974.94,350.41,325.19,24.37,0000 0000 0000 0000 000000
2014-05-08 01:44:28,0.01,2.06,0.00,18.17,24.70,26.26,6.01,31.25,1002.65,2047.96,2701.05,2792.00,2974.88,350.13,324.93,24.38,0000 0000 0000 0000 000000
2014-05-08 01:45:28,0.05,2.06,0.00,18.15,24.71,26.25,6.07,31.21,1002.65,2047.96,2701.02,2792.00,2974.62,350.12,325.19,24.38,0000 0000 0000 0000 000000
2014-05-08 01:46:29,0.04,2.06,0.00,18.17,24.71,26.25,6.13,31.25,1002.56,2047.98,2701.01,2792.00,2974.43,350.53,325.09,24.39,0000 0000 0000 0000 000000
2014-05-08 01:47:29,0.05,2.06,0.00,18.20,24.71,26.31,6.02,31.38,1002.52,2047.97,2700.97,2792.00,2974.26,349.51,324.56,24.39,0000 0000 0000 0000 000000
2014-05-08 01:48:29,0.04,2.06,0.00,18.21,24.72,26.28,5.90,31.50,1002.51,2047.98,2700.95,2791.98,2974.12,349.75,324.18,24.40,0000 0000 0000 0000 000000
2014-05-08 01:49:29,0.03,2.06,0.00,18.15,24.72,26.26,5.98,31.38,1002.48,2047.98,2700.86,2791.95,2974.05,349.73,324.82,24.41,0000 0000 0000 0000 000000
2014-05-08 01:50:30,0.04,2.06,0.00,18.10,24.72,26.29,6.02,31.38,1002.47,2047.98,2700.48,2791.73,2974.02,349.37,324.48,24.41,0000 0000 0000 0000 000000
2014-05-08 01:51:30,0.11,2.06,0.00,18.07,24.72,26.23,6.07,31.42,1002.47,2047.98,2700.19,2791.34,2974.00,349.47,324.37,24.42,0000 0000 0000 0000 000000
2014-05-08 01:52:30,0.15,2.06,0.00,18.07,24.72,26.22,6.06,31.25,1002.46,2047.97,2700.09,2791.18,2974.00,350.28,325.12,24.42,0000 0000 0000 0000 000000
2014-05-08 01:53:31,0.06,2.06,0.00,18.11,24.72,26.22,6.07,31.17,1002.47,2047.98,2699.98,2791.08,2973.99,350.12,325.20,24.43,0000 0000 0000 0000 000000
2014-05-08 01:54:31,0.03,2.06,0.00,18.12,24.72,26.23,5.96,31.46,1002.48,2047.97,2699.98,2791.04,2973.96,349.51,324.44,24.43,0000 0000 0000 0000 000000
2014-05-08 01:55:31,0.02,2.06,0.00,18.15,24.72,26.27,5.94,31.25,1002.47,2047.99,2699.96,2791.03,2973.76,349.79,324.52,24.44,0000 0000 0000 0000 000000
2014-05-08 01:56:32,0.07,2.06,0.00,18.18,24.72,26.28,6.11,31.42,1002.46,2047.99,2699.81,2791.01,2973.39,350.21,325.15,24.45,0000 0000 0000 0000 000000
2014-05-08 01:57:32,0.07,2.06,0.00,18.23,24.72,26.30,5.99,31.46,1002.46,2047.97,2699.85,2791.00,2973.22,349.62,324.30,24.45,0000 0000 0000 0000 000000
2014-05-08 01:58:32,0.02,2.06,0.00,18.25,24.72,26.29,6.17,31.46,1002.46,2047.98,2699.75,2790.97,2973.11,350.68,324.80,24.46,0000 0000 0000 0000 000000
2014-05-08 01:59:32,0.06,2.06,0.00,18.29,24.72,26.32,5.92,31.29,1002.47,2047.96,2699.33,2790.85,2973.04,349.41,324.16,24.46,0000 0000 0000 0000 000000
2014-05-08 02:00:33,0.09,2.06,0.00,18.32,24.72,26.31,6.08,31.13,1002.46,2047.95,2699.13,2790.68,2973.01,350.13,324.55,24.47,0000 0000 0000 0000 000000
2014-05-08 02:01:33,0.10,2.06,0.00,18.32,24.73,26.35,6.09,31.33,1002.46,2047.96,2699.05,2790.40,2972.99,349.69,324.29,24.48,0000 0000 0000 0000 000000
2014-05-08 02:02:33,0.07,2.06,0.00,18.27,24.73,26.35,6.23,31.46,1002.48,2047.97,2699.02,2790.33,2972.99,350.93,325.69,24.48,0000 0000 0000 0000 000000
2014-05-08 02:03:33,0.03,2.06,0.00,18.26,24.74,26.42,6.13,31.29,1002.46,2047.93,2698.96,2790.14,2972.95,350.71,325.54,24.49,0000 0000 0000 0000 000000
2014-05-08 02:04:34,0.03,2.06,0.00,18.27,24.74,26.45,6.00,31.25,1002.47,2047.88,2698.83,2790.05,2972.74,350.38,324.74,24.49,0000 0000 0000 0000 000000
2014-05-08 02:05:34,0.03,2.06,0.00,18.28,24.74,26.48,5.98,31.42,1002.47,2047.88,2698.81,2790.02,2972.43,350.33,324.94,24.50,0000 0000 0000 0000 000000
2014-05-08 02:06:34,0.04,2.06,0.00,18.31,24.75,26.47,6.17,31.33,1002.50,2047.87,2698.73,2790.00,2972.31,350.17,324.80,24.51,0000 0000 0000 0000 000000
2014-05-08 02:07:35,0.06,2.06,0.00,18.34,24.75,26.43,5.99,31.25,1002.53,2047.92,2698.68,2790.00,2972.17,350.05,324.48,24.51,0000 0000 0000 0000 000000
2014-05-08 02:08:35,0.07,2.06,0.00,18.37,24.75,26.44,6.00,31.21,1002.59,2047.91,2698.30,2790.00,2972.07,349.38,324.00,24.52,0000 0000 0000 0000 000000
2014-05-08 02:09:35,0.05,2.06,0.00,18.38,24.75,26.53,6.01,31.13,1002.68,2047.88,2698.11,2789.98,2972.02,350.24,324.81,24.52,0000 0000 0000 0000 000000
2014-05-08 02:10:36,0.03,2.06,0.00,18.36,24.75,26.61,6.10,31.13,1002.67,2047.86,2698.04,2789.96,2972.00,350.42,324.99,24.53,0000 0000 0000 0000 000000
2014-05-08 02:11:36,0.02,2.07,0.00,18.34,24.75,26.53,5.95,31.17,1002.70,2047.83,2698.01,2789.75,2972.00,348.89,323.61,24.53,0000 0000 0000 0000 000000
2014-05-08 02:12:36,0.03,2.07,0.00,18.33,24.75,26.51,6.04,31.33,1002.74,2047.77,2697.99,2789.50,2971.99,349.19,323.53,24.54,0000 0000 0000 0000 000000
2014-05-08 02:13:37,0.01,2.07,0.00,18.34,24.75,26.59,6.12,31.17,1002.84,2047.69,2697.92,2789.24,2971.98,350.14,324.38,24.55,0000 0000 0000 0000 000000
2014-05-08 02:14:37,0.01,2.07,0.00,18.33,24.75,26.66,6.04,31.17,1002.84,2047.67,2697.81,2789.10,2971.91,349.71,324.70,24.55,0000 0000 0000 0000 000000
2014-05-08 02:15:37,0.10,2.07,0.00,18.34,24.76,26.72,6.16,31.25,1002.83,2047.77,2697.67,2789.06,2971.83,350.34,325.15,24.56,0000 0000 0000 0000 000000
2014-05-08 02:16:38,0.08,2.07,0.00,18.35,24.76,26.70,6.06,31.17,1002.89,2047.70,2697.44,2789.03,2971.51,350.25,324.94,24.56,0000 0000 0000 0000 000000
2014-05-08 02:17:38,0.06,2.07,0.00,18.35,24.77,26.61,6.02,31.29,1002.91,2047.70,2697.16,2789.01,2971.22,350.37,325.01,24.57,0000 0000 0000 0000 000000
2014-05-08 02:18:38,0.10,2.07,0.00,18.35,24.77,26.55,5.92,31.08,1002.94,2047.76,2697.05,2789.00,2971.09,349.06,323.84,24.58,0000 0000 0000 0000 000000
2014-05-08 02:19:38,0.08,2.07,0.00,18.31,24.77,26.56,6.01,31.29,1002.93,2047.78,2697.01,2788.99,2971.03,349.52,324.30,24.58,0000 0000 0000 0000 000000
2014-05-08 02:20:39,0.04,2.07,0.00,18.26,24.77,26.53,6.04,31.29,1002.93,2047.78,2696.94,2788.99,2971.01,349.37,324.20,24.59,0000 0000 0000 0000 000000
2014-05-08 02:21:39,0.02,2.07,0.00,18.25,24.77,26.56,5.94,31.33,1002.94,2047.74,2696.86,2788.93,2971.00,349.73,324.89,24.59,0000 0000 0000 0000 000000
2014-05-08 02:22:39,-0.01,2.07,0.00,18.28,24.77,26.56,6.11,31.25,1002.92,2047.61,2696.61,2788.68,2970.99,350.13,325.27,24.60,0000 0000 0000 0000 000000
2014-05-08 02:23:40,0.01,2.07,0.00,18.29,24.77,26.52,6.13,31.33,1002.88,2047.58,2696.35,2788.36,2970.96,350.98,325.33,24.60,0000 0000 0000 0000 000000
2014-05-08 02:24:40,0.08,2.07,0.00,18.33,24.77,26.58,6.12,31.50,1002.75,2047.49,2696.19,2788.17,2970.71,350.08,324.93,24.61,0000 0000 0000 0000 000000
2014-05-08 02:25:40,0.07,2.07,0.00,18.37,24.77,26.61,5.91,31.46,1002.66,2047.38,2696.07,2788.06,2970.36,348.05,322.79,24.62,0000 0000 0000 0000 000000
2014-05-08 02:26:40,0.03,2.07,0.00,18.37,24.78,26.63,5.97,31.42,1002.61,2047.36,2696.02,2788.02,2970.16,349.28,324.01,24.62,0000 0000 0000 0000 000000
2014-05-08 02:27:41,0.01,2.07,0.00,18.36,24.79,26.61,6.27,31.42,1002.58,2047.44,2695.97,2788.00,2970.06,351.33,325.81,24.63,0000 0000 0000 0000 000000
2014-05-08 02:28:41,0.10,2.07,0.00,18.33,24.79,26.57,6.08,31.29,1002.54,2047.50,2695.98,2788.00,2970.04,350.41,324.97,24.63,0000 0000 0000 0000 000000
2014-05-08 02:29:41,0.05,2.07,0.00,18.30,24.80,26.54,5.88,31.25,1002.51,2047.46,2695.75,2788.00,2970.01,349.20,324.08,24.64,0000 0000 0000 0000 000000
2014-05-08 02:30:42,0.03,2.07,0.00,18.29,24.80,26.54,6.14,31.13,1002.49,2047.43,2695.54,2788.00,2970.00,350.21,324.65,24.65,0000 0000 0000 0000 000000
2014-05-08 02:31:42,-0.03,2.07,0.00,18.29,24.80,26.51,6.18,31.29,1002.49,2047.30,2695.26,2787.93,2969.99,350.64,325.22,24.65,0000 0000 0000 0000 000000
2014-05-08 02:32:42,-0.02,2.07,0.00,18.32,24.80,26.58,6.00,31.33,1002.46,2047.17,2695.11,2787.69,2969.92,349.78,324.46,24.66,0000 0000 0000 0000 000000
2014-05-08 02:33:43,0.01,2.07,0.00,18.35,24.80,26.62,6.01,31.29,1002.48,2047.11,2695.03,2787.34,2969.62,349.88,324.98,24.66,0000 0000 0000 0000 000000
2014-05-08 02:34:43,0.10,2.07,0.00,18.36,24.80,26.57,6.13,31.46,1002.46,2047.11,2694.99,2787.14,2969.34,350.35,324.50,24.67,0000 0000 0000 0000 000000
2014-05-08 02:35:43,0.11,2.07,0.00,18.39,24.80,26.62,6.08,31.21,1002.47,2047.15,2694.95,2787.05,2969.15,350.36,324.61,24.68,0000 0000 0000 0000 000000